Flag Island, MN

8:36 AM CDT on March 29, 2017 (GMT -0500)
Flag Island

Weather History for KFGN - February, 2013

Change the Weather History Date:

Sunday, February 17, 2013

  Actual Average Record
Temperature  
Mean Temperature 18 °F -  
Max Temperature 28 °F 17 °F 48 °F (2017)
Min Temperature 8 °F 1 °F -25 °F (2006)
Degree Days  
Heating Degree Days 47    
Moisture  
Dew Point 16 °F    
Average Humidity 87    
Maximum Humidity 100    
Minimum Humidity 73    
Precipitation  
Precipitation 0.00 in - - ()
Sea Level Pressure  
Sea Level Pressure 29.63 in    
Wind  
Wind Speed 19 mph (SSE)    
Max Wind Speed 28 mph    
Max Gust Speed 31 mph    
Visibility 6 miles    
Events Rain , Snow    
Averages and records for this station are not official NWS values.
T = Trace of Precipitation, MM = Missing Value Source: NWS Daily Summary

Daily Weather History Graph

Daily Weather History Graph

Search for Another Location

Airport or City:

Trip Planner

Search our weather history database for the weather conditions in past years. The results will help you decide how hot, cold, wet, or windy it might be!

Date:

Astronomy

Feb. 17, 2013 Rise Set
Actual Time 7:24 AM CST 5:43 PM CST
Civil Twilight 6:51 AM CST 6:16 PM CST
Nautical Twilight 6:14 AM CST 6:53 PM CST
Astronomical Twilight 5:37 AM CST 7:30 PM CST
Moon 10:35 AM CST (2/17) 1:21 AM CST (2/17)
Length of Visible Light 11h 24m
Length of Day
10h 18m
Waxing Crescent, 49% of the Moon is Illuminated
Feb 17
Waxing Crescent
Feb 17
First Quarter
Feb 25
Full
Mar 4
Last Quarter
Mar 11
New

Hourly Weather History & Observations

Time (CST) Temp. Windchill Dew Point Humidity Pressure Visibility Wind Dir Wind Speed Gust Speed Precip Events Conditions
12:13 AM 10.4 °F -8.2 °F 3.2 °F 73% 29.90 in 10.0 mi SSE 19.6 mph - N/A   Overcast
12:34 AM 10.4 °F -8.2 °F 3.2 °F 73% 29.89 in 10.0 mi SSE 19.6 mph - N/A   Overcast
12:53 AM 8.6 °F -11.0 °F 3.2 °F 79% 29.89 in 10.0 mi SSE 20.7 mph - N/A   Overcast
1:13 AM 8.6 °F -10.0 °F 3.2 °F 79% 29.88 in 10.0 mi SSE 18.4 mph - N/A   Overcast
1:33 AM 10.4 °F -6.6 °F 5.0 °F 79% 29.87 in 7.0 mi SSE 16.1 mph - N/A Snow Light Snow
1:53 AM 10.4 °F -5.4 °F 5.0 °F 79% 29.86 in 5.0 mi SSE 13.8 mph - N/A Snow Light Snow
2:13 AM 10.4 °F -6.6 °F 6.8 °F 85% 29.85 in 4.0 mi SSE 16.1 mph - N/A Snow Light Snow
2:33 AM 10.4 °F -6.6 °F 6.8 °F 85% 29.85 in 7.0 mi SSE 16.1 mph - N/A Snow Light Snow
2:53 AM 10.4 °F -6.6 °F 6.8 °F 85% 29.84 in 10.0 mi SSE 16.1 mph - N/A Snow Light Snow
3:13 AM 12.2 °F -4.8 °F 6.8 °F 79% 29.83 in 10.0 mi SSE 17.3 mph - N/A Snow Light Snow
3:33 AM 12.2 °F -4.3 °F 8.6 °F 85% 29.82 in 10.0 mi SSE 16.1 mph - N/A   Overcast
3:53 AM 12.2 °F -5.8 °F 8.6 °F 85% 29.81 in 7.0 mi SSE 19.6 mph - N/A Snow Light Snow
4:13 AM 12.2 °F -4.8 °F 8.6 °F 85% 29.80 in 10.0 mi SSE 17.3 mph - N/A   Overcast
4:33 AM 14.0 °F -3.0 °F 10.4 °F 86% 29.79 in 10.0 mi SSE 18.4 mph - N/A   Overcast
4:53 AM 14.0 °F -3.4 °F 10.4 °F 86% 29.78 in 7.0 mi SSE 19.6 mph - N/A Snow Light Snow
5:13 AM 14.0 °F -3.0 °F 10.4 °F 86% 29.77 in 2.5 mi SSE 18.4 mph - N/A Snow Light Snow
5:33 AM 14.0 °F -3.4 °F 10.4 °F 86% 29.76 in 7.0 mi SSE 19.6 mph - N/A Snow Light Snow
5:53 AM 14.0 °F -3.4 °F 10.4 °F 86% 29.76 in 4.0 mi SSE 19.6 mph - N/A Snow Light Snow
6:13 AM 15.8 °F -1.5 °F 10.4 °F 79% 29.74 in 7.0 mi SSE 20.7 mph - N/A Snow Light Snow
6:34 AM 15.8 °F -1.5 °F 12.2 °F 86% 29.74 in 4.0 mi SSE 20.7 mph - N/A Snow Light Snow
6:53 AM 15.8 °F -1.9 °F 10.4 °F 79% 29.74 in 5.0 mi SSE 21.9 mph - N/A Snow Light Snow
7:13 AM 15.8 °F -1.5 °F 10.4 °F 79% 29.73 in 7.0 mi SSE 20.7 mph - N/A Snow Light Snow
7:34 AM 15.8 °F -1.1 °F 10.4 °F 79% 29.72 in 10.0 mi SSE 19.6 mph - N/A   Overcast
7:53 AM 15.8 °F -1.1 °F 12.2 °F 86% 29.71 in 10.0 mi SSE 19.6 mph - N/A   Overcast
8:13 AM 15.8 °F -2.3 °F 12.2 °F 86% 29.69 in 10.0 mi SSE 23.0 mph - N/A   Overcast
8:34 AM 15.8 °F -3.1 °F 12.2 °F 86% 29.68 in 4.0 mi SSE 25.3 mph - N/A   Overcast
8:53 AM 15.8 °F -2.7 °F 12.2 °F 86% 29.67 in 5.0 mi SSE 24.2 mph - N/A   Overcast
9:13 AM 17.6 °F -0.3 °F 12.2 °F 79% 29.66 in 4.0 mi SSE 24.2 mph - N/A   Overcast
9:34 AM 17.6 °F -0.3 °F 14.0 °F 86% 29.65 in 4.0 mi SSE 24.2 mph - N/A   Overcast
10:13 AM 17.6 °F -1.0 °F 15.8 °F 93% 29.64 in 2.0 mi SSE 26.5 mph - N/A   Overcast
10:34 AM 17.6 °F -1.3 °F 15.8 °F 93% 29.63 in 2.0 mi SSE 27.6 mph - N/A   Overcast
10:53 AM 17.6 °F -1.0 °F 15.8 °F 93% 29.62 in 1.5 mi SSE 26.5 mph - N/A   Overcast
11:13 AM 17.6 °F -1.0 °F 15.8 °F 93% 29.61 in 2.0 mi SSE 26.5 mph - N/A   Overcast
11:34 AM 19.4 °F 1.4 °F 15.8 °F 86% 29.60 in 2.0 mi SSE 26.5 mph - N/A   Overcast
11:53 AM 19.4 °F 1.4 °F 15.8 °F 86% 29.59 in 2.0 mi SSE 26.5 mph - N/A   Overcast
12:13 PM 19.4 °F 2.1 °F 17.6 °F 93% 29.58 in 0.8 mi SSE 24.2 mph - N/A Snow Light Snow
12:34 PM 19.4 °F 1.8 °F 17.6 °F 93% 29.56 in 0.5 mi SSE 25.3 mph - N/A Snow Snow
12:53 PM 19.4 °F 1.4 °F 17.6 °F 93% 29.55 in 0.5 mi SSE 26.5 mph - N/A Snow Light Snow
1:13 PM 21.2 °F 4.2 °F 19.4 °F 93% 29.53 in 0.2 mi SSE 25.3 mph 31.1 mph N/A Snow Snow
1:33 PM 21.2 °F 3.5 °F 19.4 °F 93% 29.52 in 0.5 mi SSE 27.6 mph - N/A Snow Snow
1:53 PM 21.2 °F 4.2 °F 19.4 °F 93% 29.51 in 0.2 mi SSE 25.3 mph - N/A Snow Snow
2:14 PM 21.2 °F 5.6 °F 21.2 °F 100% 29.52 in 0.5 mi SSE 20.7 mph - N/A Snow Light Snow
2:33 PM 21.2 °F 5.2 °F 21.2 °F 100% 29.51 in 1.0 mi SSE 21.9 mph - N/A Snow Light Snow
2:53 PM 23.0 °F 7.6 °F 21.2 °F 93% 29.50 in 3.0 mi SSE 21.9 mph - N/A   Overcast
3:13 PM 23.0 °F 7.2 °F 21.2 °F 93% 29.49 in 3.0 mi SSE 23.0 mph - N/A   Overcast
3:33 PM 24.8 °F 9.6 °F 21.2 °F 86% 29.47 in 2.5 mi SSE 23.0 mph - N/A   Overcast
3:54 PM 24.8 °F 10.0 °F 21.2 °F 86% 29.46 in 3.0 mi SSE 21.9 mph - N/A   Mostly Cloudy
4:13 PM 24.8 °F 10.3 °F 23.0 °F 93% 29.46 in 4.0 mi SSE 20.7 mph - N/A   Overcast
4:33 PM 24.8 °F 10.3 °F 23.0 °F 93% 29.46 in 4.0 mi SSE 20.7 mph - N/A   Overcast
4:53 PM 26.6 °F 12.7 °F 23.0 °F 86% 29.46 in 5.0 mi SSE 20.7 mph - N/A   Overcast
5:13 PM 26.6 °F 13.8 °F 23.0 °F 86% 29.46 in 7.0 mi SSE 17.3 mph - N/A   Overcast
5:34 PM 26.6 °F 14.7 °F 23.0 °F 86% 29.46 in 10.0 mi SSE 15.0 mph - N/A   Overcast
5:53 PM 26.6 °F 15.7 °F 23.0 °F 86% 29.47 in 10.0 mi SSE 12.7 mph - N/A   Overcast
6:13 PM 26.6 °F 16.8 °F 23.0 °F 86% 29.47 in 10.0 mi SSE 10.4 mph - N/A   Overcast
6:34 PM 26.6 °F 16.2 °F 24.8 °F 93% 29.48 in 10.0 mi SE 11.5 mph - N/A   Overcast
7:13 PM 28.4 °F 18.0 °F 24.8 °F 86% 29.48 in 10.0 mi SSE 12.7 mph - N/A   Overcast
7:34 PM 28.4 °F 22.2 °F 24.8 °F 86% 29.49 in 10.0 mi South 5.8 mph - N/A   Overcast
7:53 PM 28.4 °F 20.4 °F 24.8 °F 86% 29.50 in 7.0 mi South 8.1 mph - N/A   Overcast
8:13 PM 28.4 °F 19.1 °F 24.8 °F 86% 29.50 in 2.5 mi South 10.4 mph - N/A   Overcast
8:34 PM 28.4 °F 19.7 °F 24.8 °F 86% 29.50 in 7.0 mi South 9.2 mph - N/A Rain Light Freezing Rain
8:53 PM 28.4 °F 20.4 °F 24.8 °F 86% 29.51 in 4.0 mi South 8.1 mph - N/A Snow Light Snow
9:13 PM 26.6 °F 17.5 °F 24.8 °F 93% 29.50 in 7.0 mi South 9.2 mph - N/A   Overcast
9:34 PM 26.6 °F 17.5 °F 24.8 °F 93% 29.50 in 7.0 mi SSE 9.2 mph - N/A Snow Light Snow
9:53 PM 26.6 °F 18.2 °F 24.8 °F 93% 29.51 in 10.0 mi South 8.1 mph - N/A   Overcast
10:13 PM 26.6 °F 18.2 °F 24.8 °F 93% 29.51 in 7.0 mi South 8.1 mph - N/A   Overcast
10:34 PM 26.6 °F 16.2 °F 24.8 °F 93% 29.50 in 10.0 mi SSE 11.5 mph - N/A   Overcast
10:53 PM 26.6 °F 16.8 °F 24.8 °F 93% 29.50 in 10.0 mi SSE 10.4 mph - N/A   Light Freezing Rain
11:13 PM 26.6 °F 17.5 °F 24.8 °F 93% 29.50 in 10.0 mi SSE 9.2 mph - N/A   Overcast
11:34 PM 26.6 °F 16.8 °F 24.8 °F 93% 29.50 in 7.0 mi SSE 10.4 mph - N/A Snow Light Snow
11:53 PM 26.6 °F 16.2 °F 24.8 °F 93% 29.50 in 2.5 mi SSE 11.5 mph - N/A Snow Light Snow